#datetime,building,power
2023-11-10T00:00:00,axn,28.84
2023-11-10T00:01:00,axn,28.96
2023-11-10T00:02:00,axn,28.63
2023-11-10T00:03:00,axn,28.35
2023-11-10T00:04:00,axn,28.82
2023-11-10T00:05:00,axn,28.65
2023-11-10T00:06:00,axn,28.35
2023-11-10T00:07:00,axn,28.40
2023-11-10T00:08:00,axn,28.35
2023-11-10T00:09:00,axn,28.55
2023-11-10T00:10:00,axn,28.00
2023-11-10T00:11:00,axn,28.00
2023-11-10T00:12:00,axn,27.29
2023-11-10T00:13:00,axn,27.18
2023-11-10T00:14:00,axn,27.21
2023-11-10T00:15:00,axn,27.23
2023-11-10T00:16:00,axn,27.19
2023-11-10T00:17:00,axn,27.78
2023-11-10T00:18:00,axn,27.12
2023-11-10T00:19:00,axn,27.02
2023-11-10T00:20:00,axn,27.04
2023-11-10T00:21:00,axn,27.16
2023-11-10T00:22:00,axn,27.09
2023-11-10T00:23:00,axn,27.53
2023-11-10T00:24:00,axn,27.42
2023-11-10T00:25:00,axn,29.76
2023-11-10T00:26:00,axn,30.34
2023-11-10T00:27:00,axn,30.26
2023-11-10T00:28:00,axn,30.25
2023-11-10T00:29:00,axn,27.45
2023-11-10T00:30:00,axn,38.53
2023-11-10T00:31:00,axn,27.73
2023-11-10T00:32:00,axn,27.15
2023-11-10T00:33:00,axn,27.33
2023-11-10T00:34:00,axn,27.16
2023-11-10T00:35:00,axn,27.23
2023-11-10T00:36:00,axn,27.09
2023-11-10T00:37:00,axn,27.43
2023-11-10T00:38:00,axn,27.27
2023-11-10T00:39:00,axn,27.61
2023-11-10T00:40:00,axn,27.33
2023-11-10T00:41:00,axn,27.48
2023-11-10T00:42:00,axn,27.72
2023-11-10T00:43:00,axn,27.35
2023-11-10T00:44:00,axn,27.38
2023-11-10T00:45:00,axn,27.33
2023-11-10T00:46:00,axn,27.36
2023-11-10T00:47:00,axn,27.37
2023-11-10T00:48:00,axn,27.60
2023-11-10T00:49:00,axn,27.48
2023-11-10T00:50:00,axn,27.27
2023-11-10T00:51:00,axn,27.17
2023-11-10T00:52:00,axn,27.53
2023-11-10T00:53:00,axn,27.19
2023-11-10T00:54:00,axn,26.90
2023-11-10T00:55:00,axn,27.06
2023-11-10T00:56:00,axn,27.27
2023-11-10T00:57:00,axn,27.48
2023-11-10T00:58:00,axn,27.36
2023-11-10T00:59:00,axn,27.33
2023-11-10T01:00:00,axn,27.13
2023-11-10T01:01:00,axn,27.45
2023-11-10T01:02:00,axn,27.33
2023-11-10T01:03:00,axn,27.35
2023-11-10T01:04:00,axn,27.40
2023-11-10T01:05:00,axn,30.26
2023-11-10T01:06:00,axn,27.79
2023-11-10T01:07:00,axn,27.26
2023-11-10T01:08:00,axn,27.31
2023-11-10T01:09:00,axn,27.54
2023-11-10T01:10:00,axn,27.15
2023-11-10T01:11:00,axn,27.32
2023-11-10T01:12:00,axn,27.68
2023-11-10T01:13:00,axn,27.98
2023-11-10T01:14:00,axn,27.52
2023-11-10T01:15:00,axn,27.36
2023-11-10T01:16:00,axn,27.53
2023-11-10T01:17:00,axn,27.42
2023-11-10T01:18:00,axn,27.52
2023-11-10T01:19:00,axn,27.61
2023-11-10T01:20:00,axn,27.75
2023-11-10T01:21:00,axn,27.69
2023-11-10T01:22:00,axn,27.56
2023-11-10T01:23:00,axn,28.08
2023-11-10T01:24:00,axn,27.57
2023-11-10T01:25:00,axn,27.51
2023-11-10T01:26:00,axn,27.42
2023-11-10T01:27:00,axn,27.35
2023-11-10T01:28:00,axn,27.62
2023-11-10T01:29:00,axn,27.72
2023-11-10T01:30:00,axn,27.77
2023-11-10T01:31:00,axn,27.77
2023-11-10T01:32:00,axn,27.92
2023-11-10T01:33:00,axn,27.80
2023-11-10T01:34:00,axn,27.80
2023-11-10T01:35:00,axn,27.70
2023-11-10T01:36:00,axn,27.59
2023-11-10T01:37:00,axn,27.69
2023-11-10T01:38:00,axn,27.63
2023-11-10T01:39:00,axn,28.31
2023-11-10T01:40:00,axn,27.87
2023-11-10T01:41:00,axn,28.03
2023-11-10T01:42:00,axn,27.88
2023-11-10T01:43:00,axn,28.08
2023-11-10T01:44:00,axn,27.98
2023-11-10T01:45:00,axn,27.94
2023-11-10T01:46:00,axn,27.87
2023-11-10T01:47:00,axn,28.05
2023-11-10T01:48:00,axn,27.72
2023-11-10T01:49:00,axn,27.71
2023-11-10T01:50:00,axn,27.45
2023-11-10T01:51:00,axn,27.63
2023-11-10T01:52:00,axn,27.88
2023-11-10T01:53:00,axn,27.94
2023-11-10T01:54:00,axn,27.87
2023-11-10T01:55:00,axn,28.48
2023-11-10T01:56:00,axn,27.88
2023-11-10T01:57:00,axn,27.84
2023-11-10T01:58:00,axn,27.95
2023-11-10T01:59:00,axn,28.46
2023-11-10T02:00:00,axn,27.68
2023-11-10T02:01:00,axn,27.23
2023-11-10T02:02:00,axn,27.00
2023-11-10T02:03:00,axn,27.23
2023-11-10T02:04:00,axn,27.35
2023-11-10T02:05:00,axn,27.47
2023-11-10T02:06:00,axn,27.17
2023-11-10T02:07:00,axn,27.25
2023-11-10T02:08:00,axn,27.17
2023-11-10T02:09:00,axn,27.16
2023-11-10T02:10:00,axn,26.99
2023-11-10T02:11:00,axn,27.32
2023-11-10T02:12:00,axn,26.98
2023-11-10T02:13:00,axn,27.03
2023-11-10T02:14:00,axn,27.02
2023-11-10T02:15:00,axn,27.22
2023-11-10T02:16:00,axn,27.03
2023-11-10T02:17:00,axn,27.50
2023-11-10T02:18:00,axn,27.18
2023-11-10T02:19:00,axn,27.19
2023-11-10T02:20:00,axn,27.31
2023-11-10T02:21:00,axn,27.11
2023-11-10T02:22:00,axn,27.13
2023-11-10T02:23:00,axn,27.13
2023-11-10T02:24:00,axn,27.36
2023-11-10T02:25:00,axn,27.13
2023-11-10T02:26:00,axn,27.03
2023-11-10T02:27:00,axn,27.14
2023-11-10T02:28:00,axn,27.20
2023-11-10T02:29:00,axn,27.05
2023-11-10T02:30:00,axn,27.27
2023-11-10T02:31:00,axn,27.10
2023-11-10T02:32:00,axn,27.13
2023-11-10T02:33:00,axn,27.53
2023-11-10T02:34:00,axn,27.54
2023-11-10T02:35:00,axn,27.34
2023-11-10T02:36:00,axn,27.84
2023-11-10T02:37:00,axn,27.50
2023-11-10T02:38:00,axn,27.21
2023-11-10T02:39:00,axn,27.03
2023-11-10T02:40:00,axn,27.00
2023-11-10T02:41:00,axn,27.09
2023-11-10T02:42:00,axn,27.13
2023-11-10T02:43:00,axn,27.08
2023-11-10T02:44:00,axn,27.83
2023-11-10T02:45:00,axn,28.29
2023-11-10T02:46:00,axn,27.78
2023-11-10T02:47:00,axn,27.97
2023-11-10T02:48:00,axn,27.77
2023-11-10T02:49:00,axn,27.48
2023-11-10T02:50:00,axn,27.20
2023-11-10T02:51:00,axn,30.65
2023-11-10T02:52:00,axn,27.41
2023-11-10T02:53:00,axn,27.26
2023-11-10T02:54:00,axn,27.46
2023-11-10T02:55:00,axn,27.47
2023-11-10T02:56:00,axn,27.49
2023-11-10T02:57:00,axn,27.70
2023-11-10T02:58:00,axn,27.72
2023-11-10T02:59:00,axn,27.22
2023-11-10T03:00:00,axn,27.15
2023-11-10T03:01:00,axn,27.43
2023-11-10T03:02:00,axn,27.47
2023-11-10T03:03:00,axn,27.84
2023-11-10T03:04:00,axn,27.47
2023-11-10T03:05:00,axn,27.21
2023-11-10T03:06:00,axn,27.13
2023-11-10T03:07:00,axn,27.21
2023-11-10T03:08:00,axn,27.16
2023-11-10T03:09:00,axn,27.48
2023-11-10T03:10:00,axn,27.31
2023-11-10T03:11:00,axn,27.25
2023-11-10T03:12:00,axn,27.09
2023-11-10T03:13:00,axn,27.23
2023-11-10T03:14:00,axn,27.41
2023-11-10T03:15:00,axn,27.11
2023-11-10T03:16:00,axn,27.18
2023-11-10T03:17:00,axn,27.19
2023-11-10T03:18:00,axn,27.46
2023-11-10T03:19:00,axn,27.21
2023-11-10T03:20:00,axn,27.75
2023-11-10T03:21:00,axn,27.49
2023-11-10T03:22:00,axn,27.52
2023-11-10T03:23:00,axn,27.60
2023-11-10T03:24:00,axn,27.49
2023-11-10T03:25:00,axn,27.33
2023-11-10T03:26:00,axn,27.36
2023-11-10T03:27:00,axn,27.32
2023-11-10T03:28:00,axn,27.45
2023-11-10T03:29:00,axn,27.18
2023-11-10T03:30:00,axn,33.13
2023-11-10T03:31:00,axn,33.13
2023-11-10T03:32:00,axn,33.15
2023-11-10T03:33:00,axn,32.93
2023-11-10T03:34:00,axn,27.62
2023-11-10T03:35:00,axn,27.05
2023-11-10T03:36:00,axn,29.77
2023-11-10T03:37:00,axn,29.89
2023-11-10T03:38:00,axn,29.76
2023-11-10T03:39:00,axn,26.91
2023-11-10T03:40:00,axn,31.43
2023-11-10T03:41:00,axn,31.38
2023-11-10T03:42:00,axn,31.72
2023-11-10T03:43:00,axn,27.25
2023-11-10T03:44:00,axn,27.16
2023-11-10T03:45:00,axn,27.07
2023-11-10T03:46:00,axn,27.25
2023-11-10T03:47:00,axn,27.18
2023-11-10T03:48:00,axn,27.10
2023-11-10T03:49:00,axn,27.23
2023-11-10T03:50:00,axn,26.80
2023-11-10T03:51:00,axn,26.83
2023-11-10T03:52:00,axn,26.92
2023-11-10T03:53:00,axn,26.83
2023-11-10T03:54:00,axn,27.11
2023-11-10T03:55:00,axn,27.23
2023-11-10T03:56:00,axn,27.20
2023-11-10T03:57:00,axn,27.76
2023-11-10T03:58:00,axn,27.37
2023-11-10T03:59:00,axn,26.89
2023-11-10T04:00:00,axn,27.10
2023-11-10T04:01:00,axn,27.13
2023-11-10T04:02:00,axn,27.30
2023-11-10T04:03:00,axn,27.22
2023-11-10T04:04:00,axn,27.53
2023-11-10T04:05:00,axn,27.51
2023-11-10T04:06:00,axn,27.48
2023-11-10T04:07:00,axn,27.45
2023-11-10T04:08:00,axn,27.41
2023-11-10T04:09:00,axn,27.00
2023-11-10T04:10:00,axn,41.95
2023-11-10T04:11:00,axn,41.49
2023-11-10T04:12:00,axn,41.60
2023-11-10T04:13:00,axn,41.50
2023-11-10T04:14:00,axn,41.36
2023-11-10T04:15:00,axn,27.10
2023-11-10T04:16:00,axn,37.63
2023-11-10T04:17:00,axn,37.58
2023-11-10T04:18:00,axn,37.25
2023-11-10T04:19:00,axn,37.69
2023-11-10T04:20:00,axn,27.70
2023-11-10T04:21:00,axn,27.65
2023-11-10T04:22:00,axn,27.83
2023-11-10T04:23:00,axn,27.24
2023-11-10T04:24:00,axn,27.20
2023-11-10T04:25:00,axn,26.90
2023-11-10T04:26:00,axn,27.00
2023-11-10T04:27:00,axn,27.18
2023-11-10T04:28:00,axn,27.16
2023-11-10T04:29:00,axn,27.00
2023-11-10T04:30:00,axn,26.93
2023-11-10T04:31:00,axn,27.27
2023-11-10T04:32:00,axn,26.96
2023-11-10T04:33:00,axn,26.88
2023-11-10T04:34:00,axn,26.93
2023-11-10T04:35:00,axn,26.84
2023-11-10T04:36:00,axn,26.77
2023-11-10T04:37:00,axn,26.71
2023-11-10T04:38:00,axn,26.67
2023-11-10T04:39:00,axn,26.68
2023-11-10T04:40:00,axn,26.75
2023-11-10T04:41:00,axn,26.80
2023-11-10T04:42:00,axn,26.30
2023-11-10T04:43:00,axn,26.86
2023-11-10T04:44:00,axn,27.16
2023-11-10T04:45:00,axn,26.90
2023-11-10T04:46:00,axn,26.82
2023-11-10T04:47:00,axn,26.70
2023-11-10T04:48:00,axn,26.73
2023-11-10T04:49:00,axn,26.86
2023-11-10T04:50:00,axn,27.52
2023-11-10T04:51:00,axn,27.07
2023-11-10T04:52:00,axn,27.22
2023-11-10T04:53:00,axn,27.45
2023-11-10T04:54:00,axn,27.22
2023-11-10T04:55:00,axn,27.14
2023-11-10T04:56:00,axn,27.12
2023-11-10T04:57:00,axn,26.94
2023-11-10T04:58:00,axn,26.86
2023-11-10T04:59:00,axn,26.71
2023-11-10T05:00:00,axn,27.01
2023-11-10T05:01:00,axn,29.91
2023-11-10T05:02:00,axn,30.69
2023-11-10T05:03:00,axn,31.51
2023-11-10T05:04:00,axn,31.56
2023-11-10T05:05:00,axn,31.37
2023-11-10T05:06:00,axn,31.52
2023-11-10T05:07:00,axn,32.01
2023-11-10T05:08:00,axn,32.39
2023-11-10T05:09:00,axn,32.57
2023-11-10T05:10:00,axn,32.77
2023-11-10T05:11:00,axn,32.94
2023-11-10T05:12:00,axn,39.21
2023-11-10T05:13:00,axn,39.57
2023-11-10T05:14:00,axn,39.88
2023-11-10T05:15:00,axn,36.19
2023-11-10T05:16:00,axn,36.19
2023-11-10T05:17:00,axn,36.58
2023-11-10T05:18:00,axn,36.47
2023-11-10T05:19:00,axn,36.72
2023-11-10T05:20:00,axn,36.11
2023-11-10T05:21:00,axn,37.25
2023-11-10T05:22:00,axn,37.45
2023-11-10T05:23:00,axn,37.25
2023-11-10T05:24:00,axn,36.95
2023-11-10T05:25:00,axn,36.46
2023-11-10T05:26:00,axn,36.50
2023-11-10T05:27:00,axn,37.39
2023-11-10T05:28:00,axn,37.47
2023-11-10T05:29:00,axn,37.20
2023-11-10T05:30:00,axn,37.19
2023-11-10T05:31:00,axn,38.23
2023-11-10T05:32:00,axn,38.05
2023-11-10T05:33:00,axn,38.11
2023-11-10T05:34:00,axn,37.93
2023-11-10T05:35:00,axn,38.23
2023-11-10T05:36:00,axn,40.13
2023-11-10T05:37:00,axn,39.48
2023-11-10T05:38:00,axn,35.95
2023-11-10T05:39:00,axn,36.85
2023-11-10T05:40:00,axn,36.83
2023-11-10T05:41:00,axn,36.40
2023-11-10T05:42:00,axn,35.77
2023-11-10T05:43:00,axn,34.86
2023-11-10T05:44:00,axn,35.34
2023-11-10T05:45:00,axn,35.96
2023-11-10T05:46:00,axn,36.35
2023-11-10T05:47:00,axn,36.03
2023-11-10T05:48:00,axn,35.05
2023-11-10T05:49:00,axn,35.35
2023-11-10T05:50:00,axn,34.91
2023-11-10T05:51:00,axn,35.60
2023-11-10T05:52:00,axn,35.28
2023-11-10T05:53:00,axn,34.78
2023-11-10T05:54:00,axn,35.21
2023-11-10T05:55:00,axn,34.36
2023-11-10T05:56:00,axn,34.31
2023-11-10T05:57:00,axn,34.94
2023-11-10T05:58:00,axn,34.90
2023-11-10T05:59:00,axn,34.63
2023-11-10T06:00:00,axn,35.12
2023-11-10T06:01:00,axn,35.07
2023-11-10T06:02:00,axn,35.62
2023-11-10T06:03:00,axn,36.06
2023-11-10T06:04:00,axn,36.09
2023-11-10T06:05:00,axn,36.59
2023-11-10T06:06:00,axn,34.91
2023-11-10T06:07:00,axn,35.18
2023-11-10T06:08:00,axn,35.05
2023-11-10T06:09:00,axn,35.23
2023-11-10T06:10:00,axn,50.05
2023-11-10T06:11:00,axn,34.12
2023-11-10T06:12:00,axn,33.59
2023-11-10T06:13:00,axn,34.59
2023-11-10T06:14:00,axn,34.39
2023-11-10T06:15:00,axn,34.72
2023-11-10T06:16:00,axn,34.90
2023-11-10T06:17:00,axn,34.97
2023-11-10T06:18:00,axn,35.76
2023-11-10T06:19:00,axn,36.67
2023-11-10T06:20:00,axn,35.93
2023-11-10T06:21:00,axn,35.40
2023-11-10T06:22:00,axn,35.67
2023-11-10T06:23:00,axn,36.33
2023-11-10T06:24:00,axn,36.23
2023-11-10T06:25:00,axn,36.41
2023-11-10T06:26:00,axn,35.88
2023-11-10T06:27:00,axn,36.26
2023-11-10T06:28:00,axn,36.23
2023-11-10T06:29:00,axn,36.72
2023-11-10T06:30:00,axn,36.12
2023-11-10T06:31:00,axn,36.40
2023-11-10T06:32:00,axn,36.06
2023-11-10T06:33:00,axn,35.98
2023-11-10T06:34:00,axn,35.94
2023-11-10T06:35:00,axn,36.30
2023-11-10T06:36:00,axn,35.84
2023-11-10T06:37:00,axn,34.98
2023-11-10T06:38:00,axn,34.78
2023-11-10T06:39:00,axn,35.72
2023-11-10T06:40:00,axn,34.80
2023-11-10T06:41:00,axn,34.88
2023-11-10T06:42:00,axn,34.55
2023-11-10T06:43:00,axn,34.24
2023-11-10T06:44:00,axn,33.54
2023-11-10T06:45:00,axn,34.38
2023-11-10T06:46:00,axn,34.44
2023-11-10T06:47:00,axn,34.13
2023-11-10T06:48:00,axn,55.25
2023-11-10T06:49:00,axn,33.96
2023-11-10T06:50:00,axn,34.00
2023-11-10T06:51:00,axn,34.68
2023-11-10T06:52:00,axn,34.70
2023-11-10T06:53:00,axn,34.22
2023-11-10T06:54:00,axn,36.92
2023-11-10T06:55:00,axn,36.73
2023-11-10T06:56:00,axn,36.68
2023-11-10T06:57:00,axn,34.25
2023-11-10T06:58:00,axn,34.35
2023-11-10T06:59:00,axn,34.18
2023-11-10T07:00:00,axn,34.22
2023-11-10T07:01:00,axn,34.18
2023-11-10T07:02:00,axn,35.27
2023-11-10T07:03:00,axn,36.17
2023-11-10T07:04:00,axn,36.06
2023-11-10T07:05:00,axn,35.53
2023-11-10T07:06:00,axn,35.59
2023-11-10T07:07:00,axn,35.90
2023-11-10T07:08:00,axn,35.81
2023-11-10T07:09:00,axn,36.47
2023-11-10T07:10:00,axn,36.35
2023-11-10T07:11:00,axn,36.84
2023-11-10T07:12:00,axn,35.85
2023-11-10T07:13:00,axn,35.83
2023-11-10T07:14:00,axn,35.53
2023-11-10T07:15:00,axn,35.68
2023-11-10T07:16:00,axn,35.61
2023-11-10T07:17:00,axn,35.28
2023-11-10T07:18:00,axn,34.99
2023-11-10T07:19:00,axn,34.97
2023-11-10T07:20:00,axn,34.75
2023-11-10T07:21:00,axn,34.53
2023-11-10T07:22:00,axn,34.87
2023-11-10T07:23:00,axn,35.16
2023-11-10T07:24:00,axn,35.12
2023-11-10T07:25:00,axn,35.71
2023-11-10T07:26:00,axn,35.98
2023-11-10T07:27:00,axn,38.53
2023-11-10T07:28:00,axn,40.23
2023-11-10T07:29:00,axn,40.08
2023-11-10T07:30:00,axn,40.26
2023-11-10T07:31:00,axn,40.73
2023-11-10T07:32:00,axn,40.99
2023-11-10T07:33:00,axn,41.11
2023-11-10T07:34:00,axn,41.18
2023-11-10T07:35:00,axn,41.39
2023-11-10T07:36:00,axn,42.04
2023-11-10T07:37:00,axn,41.58
2023-11-10T07:38:00,axn,41.52
2023-11-10T07:39:00,axn,41.51
2023-11-10T07:40:00,axn,41.55
2023-11-10T07:41:00,axn,41.50
2023-11-10T07:42:00,axn,41.43
2023-11-10T07:43:00,axn,41.60
2023-11-10T07:44:00,axn,41.79
2023-11-10T07:45:00,axn,41.69
2023-11-10T07:46:00,axn,41.83
2023-11-10T07:47:00,axn,41.76
2023-11-10T07:48:00,axn,41.05
2023-11-10T07:49:00,axn,40.68
2023-11-10T07:50:00,axn,41.05
2023-11-10T07:51:00,axn,41.82
2023-11-10T07:52:00,axn,41.79
2023-11-10T07:53:00,axn,42.11
2023-11-10T07:54:00,axn,42.20
2023-11-10T07:55:00,axn,42.20
2023-11-10T07:56:00,axn,41.64
2023-11-10T07:57:00,axn,40.84
2023-11-10T07:58:00,axn,40.96
2023-11-10T07:59:00,axn,41.24
2023-11-10T08:00:00,axn,41.74
2023-11-10T08:01:00,axn,43.50
2023-11-10T08:02:00,axn,43.84
2023-11-10T08:03:00,axn,43.91
2023-11-10T08:04:00,axn,44.35
2023-11-10T08:05:00,axn,61.36
2023-11-10T08:06:00,axn,44.20
2023-11-10T08:07:00,axn,58.31
2023-11-10T08:08:00,axn,58.17
2023-11-10T08:09:00,axn,57.66
2023-11-10T08:10:00,axn,57.98
2023-11-10T08:11:00,axn,57.69
2023-11-10T08:12:00,axn,44.36
2023-11-10T08:13:00,axn,44.07
2023-11-10T08:14:00,axn,44.22
2023-11-10T08:15:00,axn,44.08
2023-11-10T08:16:00,axn,44.53
2023-11-10T08:17:00,axn,44.10
2023-11-10T08:18:00,axn,44.63
2023-11-10T08:19:00,axn,43.73
2023-11-10T08:20:00,axn,44.15
2023-11-10T08:21:00,axn,43.69
2023-11-10T08:22:00,axn,43.85
2023-11-10T08:23:00,axn,44.29
2023-11-10T08:24:00,axn,44.08
2023-11-10T08:25:00,axn,44.15
2023-11-10T08:26:00,axn,43.97
2023-11-10T08:27:00,axn,44.32
2023-11-10T08:28:00,axn,44.55
2023-11-10T08:29:00,axn,43.98
2023-11-10T08:30:00,axn,44.20
2023-11-10T08:31:00,axn,44.75
2023-11-10T08:32:00,axn,44.45
2023-11-10T08:33:00,axn,44.63
2023-11-10T08:34:00,axn,44.84
2023-11-10T08:35:00,axn,44.70
2023-11-10T08:36:00,axn,44.99
2023-11-10T08:37:00,axn,44.88
2023-11-10T08:38:00,axn,44.83
2023-11-10T08:39:00,axn,44.64
2023-11-10T08:40:00,axn,44.99
2023-11-10T08:41:00,axn,45.09
2023-11-10T08:42:00,axn,45.46
2023-11-10T08:43:00,axn,45.16
2023-11-10T08:44:00,axn,44.99
2023-11-10T08:45:00,axn,45.23
2023-11-10T08:46:00,axn,44.72
2023-11-10T08:47:00,axn,45.47
2023-11-10T08:48:00,axn,47.96
2023-11-10T08:49:00,axn,45.17
2023-11-10T08:50:00,axn,45.24
2023-11-10T08:51:00,axn,44.95
2023-11-10T08:52:00,axn,45.00
2023-11-10T08:53:00,axn,45.32
2023-11-10T08:54:00,axn,45.24
2023-11-10T08:55:00,axn,45.11
2023-11-10T08:56:00,axn,45.27
2023-11-10T08:57:00,axn,45.37
2023-11-10T08:58:00,axn,45.13
2023-11-10T08:59:00,axn,45.14
2023-11-10T09:00:00,axn,45.24
2023-11-10T09:01:00,axn,45.07
2023-11-10T09:02:00,axn,45.04
2023-11-10T09:03:00,axn,45.39
2023-11-10T09:04:00,axn,55.90
2023-11-10T09:05:00,axn,56.65
2023-11-10T09:06:00,axn,55.17
2023-11-10T09:07:00,axn,54.93
2023-11-10T09:08:00,axn,55.01
2023-11-10T09:09:00,axn,44.45
2023-11-10T09:10:00,axn,45.15
2023-11-10T09:11:00,axn,45.21
2023-11-10T09:12:00,axn,45.47
2023-11-10T09:13:00,axn,44.86
2023-11-10T09:14:00,axn,45.05
2023-11-10T09:15:00,axn,45.44
2023-11-10T09:16:00,axn,45.70
2023-11-10T09:17:00,axn,45.77
2023-11-10T09:18:00,axn,45.29
2023-11-10T09:19:00,axn,45.57
2023-11-10T09:20:00,axn,45.34
2023-11-10T09:21:00,axn,45.45
2023-11-10T09:22:00,axn,45.51
2023-11-10T09:23:00,axn,46.24
2023-11-10T09:24:00,axn,46.30
2023-11-10T09:25:00,axn,46.17
2023-11-10T09:26:00,axn,45.65
2023-11-10T09:27:00,axn,45.90
2023-11-10T09:28:00,axn,45.99
2023-11-10T09:29:00,axn,46.25
2023-11-10T09:30:00,axn,46.50
2023-11-10T09:31:00,axn,46.71
2023-11-10T09:32:00,axn,46.69
2023-11-10T09:33:00,axn,46.81
2023-11-10T09:34:00,axn,46.51
2023-11-10T09:35:00,axn,46.69
2023-11-10T09:36:00,axn,46.79
2023-11-10T09:37:00,axn,46.65
2023-11-10T09:38:00,axn,46.98
2023-11-10T09:39:00,axn,50.88
2023-11-10T09:40:00,axn,50.34
2023-11-10T09:41:00,axn,50.41
2023-11-10T09:42:00,axn,47.62
2023-11-10T09:43:00,axn,48.12
2023-11-10T09:44:00,axn,48.16
2023-11-10T09:45:00,axn,47.76
2023-11-10T09:46:00,axn,47.70
2023-11-10T09:47:00,axn,47.94
2023-11-10T09:48:00,axn,48.52
2023-11-10T09:49:00,axn,48.44
2023-11-10T09:50:00,axn,48.17
2023-11-10T09:51:00,axn,48.91
2023-11-10T09:52:00,axn,49.50
2023-11-10T09:53:00,axn,48.76
2023-11-10T09:54:00,axn,48.73
2023-11-10T09:55:00,axn,48.20
2023-11-10T09:56:00,axn,48.40
2023-11-10T09:57:00,axn,47.88
2023-11-10T09:58:00,axn,47.50
2023-11-10T09:59:00,axn,47.52
2023-11-10T10:00:00,axn,52.46
2023-11-10T10:01:00,axn,52.99
2023-11-10T10:02:00,axn,52.02
2023-11-10T10:03:00,axn,52.15
2023-11-10T10:04:00,axn,47.88
2023-11-10T10:05:00,axn,49.73
2023-11-10T10:06:00,axn,48.18
2023-11-10T10:07:00,axn,48.58
2023-11-10T10:08:00,axn,47.96
2023-11-10T10:09:00,axn,47.31
2023-11-10T10:10:00,axn,47.23
2023-11-10T10:11:00,axn,47.51
2023-11-10T10:12:00,axn,47.89
2023-11-10T10:13:00,axn,47.40
2023-11-10T10:14:00,axn,47.53
2023-11-10T10:15:00,axn,46.90
2023-11-10T10:16:00,axn,47.51
2023-11-10T10:17:00,axn,47.21
2023-11-10T10:18:00,axn,47.34
2023-11-10T10:19:00,axn,47.66
2023-11-10T10:20:00,axn,47.29
2023-11-10T10:21:00,axn,47.02
2023-11-10T10:22:00,axn,46.88
2023-11-10T10:23:00,axn,47.37
2023-11-10T10:24:00,axn,47.48
2023-11-10T10:25:00,axn,47.34
2023-11-10T10:26:00,axn,47.66
2023-11-10T10:27:00,axn,47.79
2023-11-10T10:28:00,axn,47.32
2023-11-10T10:29:00,axn,47.42
2023-11-10T10:30:00,axn,47.22
2023-11-10T10:31:00,axn,46.80
2023-11-10T10:32:00,axn,46.82
2023-11-10T10:33:00,axn,47.12
2023-11-10T10:34:00,axn,47.22
2023-11-10T10:35:00,axn,47.62
2023-11-10T10:36:00,axn,47.53
2023-11-10T10:37:00,axn,47.37
2023-11-10T10:38:00,axn,50.31
2023-11-10T10:39:00,axn,47.21
2023-11-10T10:40:00,axn,46.88
2023-11-10T10:41:00,axn,47.28
2023-11-10T10:42:00,axn,47.25
2023-11-10T10:43:00,axn,47.10
2023-11-10T10:44:00,axn,47.55
2023-11-10T10:45:00,axn,47.27
2023-11-10T10:46:00,axn,47.18
2023-11-10T10:47:00,axn,46.97
2023-11-10T10:48:00,axn,47.01
2023-11-10T10:49:00,axn,46.86
2023-11-10T10:50:00,axn,47.12
2023-11-10T10:51:00,axn,46.70
2023-11-10T10:52:00,axn,46.72
2023-11-10T10:53:00,axn,47.32
2023-11-10T10:54:00,axn,47.14
2023-11-10T10:55:00,axn,47.46
2023-11-10T10:56:00,axn,48.33
2023-11-10T10:57:00,axn,48.05
2023-11-10T10:58:00,axn,47.27
2023-11-10T10:59:00,axn,47.64
2023-11-10T11:00:00,axn,47.22
2023-11-10T11:01:00,axn,47.17
2023-11-10T11:02:00,axn,46.90
2023-11-10T11:03:00,axn,47.33
2023-11-10T11:04:00,axn,47.58
2023-11-10T11:05:00,axn,47.98
2023-11-10T11:06:00,axn,48.02
2023-11-10T11:07:00,axn,48.09
2023-11-10T11:08:00,axn,48.19
2023-11-10T11:09:00,axn,48.39
2023-11-10T11:10:00,axn,48.21
2023-11-10T11:11:00,axn,48.06
2023-11-10T11:12:00,axn,48.58
2023-11-10T11:13:00,axn,48.12
2023-11-10T11:14:00,axn,48.32
2023-11-10T11:15:00,axn,47.95
2023-11-10T11:16:00,axn,48.38
2023-11-10T11:17:00,axn,48.21
2023-11-10T11:18:00,axn,48.65
2023-11-10T11:19:00,axn,47.93
2023-11-10T11:20:00,axn,48.59
2023-11-10T11:21:00,axn,48.45
2023-11-10T11:22:00,axn,48.39
2023-11-10T11:23:00,axn,48.35
2023-11-10T11:24:00,axn,48.24
2023-11-10T11:25:00,axn,48.76
2023-11-10T11:26:00,axn,48.54
2023-11-10T11:27:00,axn,48.30
2023-11-10T11:28:00,axn,47.84
2023-11-10T11:29:00,axn,47.82
2023-11-10T11:30:00,axn,47.73
2023-11-10T11:31:00,axn,47.89
2023-11-10T11:32:00,axn,48.03
2023-11-10T11:33:00,axn,48.24
2023-11-10T11:34:00,axn,47.99
2023-11-10T11:35:00,axn,49.25
2023-11-10T11:36:00,axn,48.77
2023-11-10T11:37:00,axn,47.73
2023-11-10T11:38:00,axn,47.35
2023-11-10T11:39:00,axn,50.36
2023-11-10T11:40:00,axn,50.48
2023-11-10T11:41:00,axn,65.83
2023-11-10T11:42:00,axn,64.96
2023-11-10T11:43:00,axn,63.34
2023-11-10T11:44:00,axn,62.83
2023-11-10T11:45:00,axn,62.73
2023-11-10T11:46:00,axn,62.39
2023-11-10T11:47:00,axn,61.92
2023-11-10T11:48:00,axn,48.11
2023-11-10T11:49:00,axn,48.75
2023-11-10T11:50:00,axn,47.96
2023-11-10T11:51:00,axn,48.96
2023-11-10T11:52:00,axn,49.13
2023-11-10T11:53:00,axn,49.01
2023-11-10T11:54:00,axn,54.04
2023-11-10T11:55:00,axn,55.05
2023-11-10T11:56:00,axn,53.74
2023-11-10T11:57:00,axn,47.97
2023-11-10T11:58:00,axn,47.42
2023-11-10T11:59:00,axn,47.62
2023-11-10T12:00:00,axn,47.57
2023-11-10T12:01:00,axn,47.67
2023-11-10T12:02:00,axn,48.60
2023-11-10T12:03:00,axn,48.52
2023-11-10T12:04:00,axn,48.41
2023-11-10T12:05:00,axn,49.00
2023-11-10T12:06:00,axn,47.98
2023-11-10T12:07:00,axn,51.21
2023-11-10T12:08:00,axn,48.28
2023-11-10T12:09:00,axn,47.89
2023-11-10T12:10:00,axn,47.76
2023-11-10T12:11:00,axn,48.59
2023-11-10T12:12:00,axn,47.84
2023-11-10T12:13:00,axn,47.81
2023-11-10T12:14:00,axn,47.70
2023-11-10T12:15:00,axn,48.01
2023-11-10T12:16:00,axn,48.57
2023-11-10T12:17:00,axn,48.33
2023-11-10T12:18:00,axn,48.14
2023-11-10T12:19:00,axn,48.70
2023-11-10T12:20:00,axn,49.11
2023-11-10T12:21:00,axn,47.59
2023-11-10T12:22:00,axn,47.70
2023-11-10T12:23:00,axn,48.00
2023-11-10T12:24:00,axn,47.76
2023-11-10T12:25:00,axn,47.80
2023-11-10T12:26:00,axn,48.18
2023-11-10T12:27:00,axn,62.40
2023-11-10T12:28:00,axn,48.57
2023-11-10T12:29:00,axn,48.97
2023-11-10T12:30:00,axn,48.53
2023-11-10T12:31:00,axn,48.36
2023-11-10T12:32:00,axn,48.69
2023-11-10T12:33:00,axn,48.48
2023-11-10T12:34:00,axn,58.04
2023-11-10T12:35:00,axn,58.30
2023-11-10T12:36:00,axn,58.23
2023-11-10T12:37:00,axn,57.88
2023-11-10T12:38:00,axn,48.51
2023-11-10T12:39:00,axn,48.90
2023-11-10T12:40:00,axn,48.88
2023-11-10T12:41:00,axn,48.88
2023-11-10T12:42:00,axn,48.75
2023-11-10T12:43:00,axn,48.78
2023-11-10T12:44:00,axn,48.73
2023-11-10T12:45:00,axn,48.92
2023-11-10T12:46:00,axn,49.52
2023-11-10T12:47:00,axn,49.40
2023-11-10T12:48:00,axn,48.83
2023-11-10T12:49:00,axn,48.23
2023-11-10T12:50:00,axn,48.02
2023-11-10T12:51:00,axn,47.84
2023-11-10T12:52:00,axn,47.59
2023-11-10T12:53:00,axn,47.84
2023-11-10T12:54:00,axn,47.65
2023-11-10T12:55:00,axn,47.57
2023-11-10T12:56:00,axn,47.82
2023-11-10T12:57:00,axn,47.97
2023-11-10T12:58:00,axn,47.99
2023-11-10T12:59:00,axn,48.23
2023-11-10T13:00:00,axn,48.17
2023-11-10T13:01:00,axn,47.50
2023-11-10T13:02:00,axn,50.13
2023-11-10T13:03:00,axn,49.96
2023-11-10T13:04:00,axn,50.35
2023-11-10T13:05:00,axn,47.48
2023-11-10T13:06:00,axn,48.65
2023-11-10T13:07:00,axn,47.08
2023-11-10T13:08:00,axn,47.25
2023-11-10T13:09:00,axn,46.90
2023-11-10T13:10:00,axn,47.38
2023-11-10T13:11:00,axn,47.56
2023-11-10T13:12:00,axn,47.55
2023-11-10T13:13:00,axn,47.38
2023-11-10T13:14:00,axn,47.29
2023-11-10T13:15:00,axn,47.97
2023-11-10T13:16:00,axn,48.00
2023-11-10T13:17:00,axn,50.95
2023-11-10T13:18:00,axn,47.94